Home > Weather > Aberdeen > Past weeks

Flag for United Kingdom Past Weather in Aberdeen, Scotland, United Kingdom — Yesterday and Last 2 Weeks

Now
63 °F

Scattered clouds.


Feels Like: 63 °F
Forecast: 52 / 62 °F
Wind: 13 mph from West

Location: Aberdeen / Dyce

Current Time: Jul 27, 2016 at 8:24:38 PM

Latest Report: Jul 27, 2016 at 7:50 PM


Visibility: N/A

Pressure: 29.83 "Hg

Humidity: 64%

Dew Point: 50 °F

Location of AberdeenLocation

Past Weather in Aberdeen — Graph

°F

Aberdeen Temperature Yesterday

Maximum temperature yesterday: 64 °F (at 11:50 AM)
Minimum temperature yesterday: 50 °F (at 4:50 AM)
Average temperature yesterday: 58 °F

High & Low Weather Summary for the Past Weeks

 TemperatureHumidityPressure
High77 °F (Jul 19, 11:20 AM)100% (Jul 20, 3:50 AM)30.24 "Hg (Jul 20, 3:50 AM)
Low50 °F (Jul 13, 2:20 AM)52% (Jul 12, 6:50 PM)29.68 "Hg (Jul 20, 2:20 PM)
Average60 °F80%29.96 "Hg
* Reported Jul 12 6:20 PM — Jul 27 6:50 PM, Aberdeen, Weather by CustomWeather, © 2016

Note: Actual official high and low records may vary slightly from our data, if they occured in-between our weather recording intervals... More about our weather records

Advertising

Aberdeen Weather History for the Previous 24 Hours

Scroll right to see more
 ConditionsComfort  
Time TempWeatherWind HumidityBarometerVisibility
6:50 PM
Wed, Jul 27
63 °FPassing clouds.14 mph68%29.83 "HgN/A
6:20 PM64 °FScattered clouds.15 mph64%29.83 "HgN/A
5:50 PM66 °FScattered clouds.14 mph60%29.83 "HgN/A
5:20 PM68 °FScattered clouds.13 mph56%29.83 "HgN/A
4:50 PM64 °FScattered showers. Scattered clouds.10 mph68%29.83 "HgN/A
4:20 PM66 °FScattered clouds.14 mph60%29.83 "HgN/A
3:50 PM66 °FScattered showers. Partly sunny.12 mph60%29.80 "HgN/A
3:20 PM66 °FScattered showers. Scattered clouds.12 mph60%29.80 "HgN/A
2:50 PM64 °FScattered clouds.10 mph60%29.80 "HgN/A
2:20 PM64 °FScattered clouds.10 mph60%29.80 "HgN/A
1:50 PM64 °FPartly sunny.9 mph60%29.83 "HgN/A
1:20 PM64 °FPartly sunny.10 mph60%29.83 "HgN/A
12:50 PM63 °FScattered clouds.7 mph59%29.83 "HgN/A
12:20 PM63 °FScattered clouds.8 mph59%29.83 "HgN/A
11:50 AM64 °FScattered clouds.9 mph56%29.83 "HgN/A
11:20 AM64 °FScattered clouds.12 mph56%29.83 "HgN/A
10:50 AM63 °FScattered clouds.10 mph56%29.83 "HgN/A
10:20 AM63 °FScattered clouds.9 mph59%29.83 "HgN/A
9:50 AM61 °FPassing clouds.8 mph63%29.83 "HgN/A
9:20 AM61 °FPassing clouds.7 mph63%29.83 "HgN/A
8:50 AM59 °FPassing clouds.10 mph68%29.83 "HgN/A
8:20 AM57 °FSunny.10 mph72%29.83 "Hg10 mi
7:50 AM57 °FSunny.10 mph72%29.83 "Hg10 mi
7:20 AM55 °FSunny.9 mph77%29.83 "Hg10 mi
6:50 AM55 °FPassing clouds.9 mph77%29.83 "HgN/A
6:20 AM55 °FScattered clouds.6 mph77%29.83 "HgN/A
5:50 AM54 °FPassing clouds.5 mph82%29.83 "HgN/A
5:20 AM52 °FFog.1 mph94%29.83 "HgN/A
4:50 AM52 °FFog.1 mph94%29.83 "HgN/A
4:20 AM52 °FPassing clouds.3 mph94%29.83 "HgN/A
3:50 AM52 °FCool.3 mph100%29.83 "HgN/A
3:20 AM54 °FCool.1 mph94%29.83 "HgN/A
2:50 AM54 °FPassing clouds.1 mph94%29.83 "HgN/A
2:20 AM54 °FPassing clouds.2 mph94%29.86 "HgN/A
1:50 AM54 °FClear.5 mph94%29.86 "Hg10 mi
1:20 AM54 °FCool.3 mph94%29.86 "HgN/A
12:50 AM55 °FClear.2 mph88%29.86 "Hg10 mi
12:20 AM55 °FPassing clouds.3 mph88%29.86 "HgN/A
11:50 PM
Tue, Jul 26
55 °FClear.5 mph88%29.89 "Hg10 mi
11:20 PM55 °FCool.5 mph88%29.89 "HgN/A
10:50 PM55 °FClear.3 mph88%29.89 "Hg10 mi
10:20 PM55 °FSunny.2 mph88%29.89 "Hg10 mi
9:50 PM55 °FScattered clouds.6 mph88%29.89 "HgN/A
9:20 PM57 °FLight rain. Scattered clouds.5 mph88%29.89 "HgN/A
8:50 PM57 °FScattered showers. Scattered clouds.6 mph88%29.89 "HgN/A
8:20 PM57 °FLight rain. Scattered clouds.7 mph88%29.89 "HgN/A
Weather by CustomWeather, © 2016

See weather overviewHow to use our weather pages